Weather History for KCNU - May, 2013

Change the Weather History Date:

Tuesday, May 7, 2013

  Actual Average Record
Temperature  
Mean Temperature 59 °F 63 °F  
Max Temperature 74 °F 74 °F 91 °F (1934)
Min Temperature 43 °F 53 °F 36 °F (1989)
Degree Days  
Heating Degree Days 6 4  
Month to date heating degree days 98 30  
Since 1 July heating degree days 4279 4432  
Cooling Degree Days 0 2  
Month to date cooling degree days 0 12  
Year to date cooling degree days 15 43  
Growing Degree Days 8 (Base 50)    
Moisture  
Dew Point 51 °F    
Average Humidity 73    
Maximum Humidity 100    
Minimum Humidity 46    
Precipitation  
Precipitation 0.00 in 0.16 in 1.78 in (1943)
Month to date precipitation 0.98 1.11  
Year to date precipitation 12.16 11.71  
Sea Level Pressure  
Sea Level Pressure 30.05 in    
Wind  
Wind Speed 4 mph (SSE)    
Max Wind Speed 13 mph    
Max Gust Speed 28 mph    
Visibility 5 miles    
Events Fog    
T = Trace of Precipitation, MM = Missing Value Source: NWS Daily Summary

Daily Weather History Graph

Daily Weather History Graph

Search for Another Location

Airport or City:

Trip Planner

Search our weather history database for the weather conditions in past years. The results will help you decide how hot, cold, wet, or windy it might be!

Date:

Astronomy

May. 07, 2013 Rise Set
Actual Time 6:19 AM CDT 8:17 PM CDT
Civil Twilight 5:50 AM CDT 8:46 PM CDT
Nautical Twilight 5:15 AM CDT 9:21 PM CDT
Astronomical Twilight 4:38 AM CDT 9:59 PM CDT
Moon 4:51 AM CDT (5/7) 6:20 PM CDT (5/7)
Length of Visible Light 14h 55m
Length of Day
13h 58m
Waning Crescent, 5% of the Moon is Illuminated
May 7
Waning Crescent
May 9
New
May 17
First Quarter
May 24
Full
May 31
Last Quarter

Hourly Weather History & Observations

Time (CDT) Temp. Dew Point Humidity Pressure Visibility Wind Dir Wind Speed Gust Speed Precip Events Conditions
12:04 AM 51.8 °F 50.0 °F 94% 30.08 in 2.5 mi Calm Calm - N/A   Clear
12:16 AM 51.8 °F 51.8 °F 100% 30.08 in 4.0 mi Calm Calm - N/A   Clear
12:31 AM 50.0 °F 48.2 °F 94% 30.07 in 1.8 mi Calm Calm - N/A   Clear
12:40 AM 51.8 °F 48.2 °F 88% 30.07 in 1.0 mi Calm Calm - N/A   Clear
12:47 AM 50.0 °F 48.2 °F 94% 30.07 in 0.8 mi Calm Calm - N/A   Clear
12:52 AM 48.9 °F 48.0 °F 97% 30.07 in 2.0 mi Calm Calm - N/A   Clear
1:01 AM 48.2 °F 48.2 °F 100% 30.07 in 1.0 mi Calm Calm - N/A   Clear
1:08 AM 48.2 °F 48.2 °F 100% 30.07 in 0.2 mi Calm Calm - N/A Fog Fog
1:16 AM 48.2 °F 48.2 °F 100% 30.08 in 0.2 mi WNW 3.5 mph - N/A Fog Fog
1:52 AM 50.0 °F 48.9 °F 96% 30.06 in 0.2 mi ESE 3.5 mph - N/A Fog Fog
2:52 AM 44.6 °F 44.6 °F 100% 30.05 in 0.2 mi Calm Calm - N/A Fog Fog
3:01 AM 48.2 °F 46.4 °F 93% 30.05 in 0.2 mi Calm Calm - N/A Fog Fog
3:27 AM 46.4 °F 44.6 °F 93% 30.05 in 0.2 mi Calm Calm - N/A Fog Fog
3:52 AM 46.0 °F 45.0 °F 96% 30.04 in 0.2 mi Calm Calm - N/A Fog Fog
4:52 AM 44.1 °F 43.0 °F 96% 30.05 in 0.2 mi Calm Calm - N/A Fog Fog
5:52 AM 44.1 °F 42.1 °F 93% 30.06 in 0.2 mi Calm Calm - N/A Fog Fog
6:52 AM 46.0 °F 45.0 °F 96% 30.07 in 0.2 mi Calm Calm - 0.01 in Fog Fog
7:52 AM 50.0 °F 48.9 °F 96% 30.08 in 0.2 mi Calm Calm - N/A Fog Fog
8:30 AM 53.6 °F 53.6 °F 100% 30.09 in 1.2 mi Calm Calm - N/A   Overcast
8:37 AM 55.4 °F 53.6 °F 94% 30.09 in 2.0 mi Calm Calm - N/A   Mostly Cloudy
8:46 AM 55.4 °F 55.4 °F 100% 30.10 in 3.0 mi Calm Calm - N/A   Scattered Clouds
8:52 AM 57.0 °F 55.0 °F 93% 30.09 in 4.0 mi Calm Calm - N/A   Scattered Clouds
9:52 AM 62.1 °F 57.0 °F 84% 30.09 in 9.0 mi WNW 3.5 mph - N/A   Clear
10:52 AM 66.0 °F 55.0 °F 68% 30.10 in 10.0 mi South 4.6 mph - N/A   Clear
11:52 AM 66.9 °F 55.0 °F 66% 30.09 in 10.0 mi SW 4.6 mph - N/A   Clear
12:52 PM 69.1 °F 55.9 °F 63% 30.07 in 10.0 mi Variable 5.8 mph - N/A   Clear
1:52 PM 71.1 °F 54.0 °F 55% 30.05 in 10.0 mi SSW 6.9 mph - N/A   Clear
2:52 PM 72.0 °F 54.0 °F 53% 30.03 in 10.0 mi Variable 4.6 mph - N/A   Partly Cloudy
3:52 PM 72.0 °F 51.1 °F 48% 30.01 in 10.0 mi South 6.9 mph - N/A   Clear
4:52 PM 73.9 °F 53.1 °F 48% 30.00 in 10.0 mi South 8.1 mph - N/A   Clear
5:52 PM 73.0 °F 51.1 °F 46% 29.99 in 10.0 mi SSE 9.2 mph - N/A   Clear
6:52 PM 68.0 °F 51.1 °F 55% 29.98 in 10.0 mi SE 4.6 mph - N/A   Clear
7:52 PM 68.0 °F 55.9 °F 65% 29.97 in 10.0 mi SE 3.5 mph - N/A   Clear
8:52 PM 61.0 °F 54.0 °F 78% 29.98 in 10.0 mi North - - N/A   Clear
9:52 PM 57.0 °F 53.1 °F 87% 29.99 in 10.0 mi SE 3.5 mph - N/A   Clear
10:52 PM 59.0 °F 53.1 °F 81% 29.99 in 10.0 mi SE 4.6 mph - N/A   Clear
11:52 PM 60.1 °F 52.0 °F 75% 29.97 in 10.0 mi SE 6.9 mph - N/A   Clear